Location: Newark
(50.8311°N, 16.5142°E)
Time: 06:44:19
(UTC+00:00)

OTV 5 (USA 277) - Visible Passes

Search period start: 16 October 2019 00:00
Search period end: 26 October 2019 00:00
Orbit: 310 x 324 km, 54.5° (Epoch: 08 October)

Date Brightness Start Highest point End Pass type
(mag) Time Alt. Az. Time Alt. Az. Time Alt. Az.
16 Oct ? 02:36:26 15° ENE 02:36:26 15° ENE 02:37:03 10° E visible
16 Oct ? 04:07:19 22° WNW 04:08:55 73° SSW 04:11:39 10° ESE visible
17 Oct ? 02:50:44 20° E 02:50:44 20° E 02:51:49 10° E visible
17 Oct ? 04:21:38 16° W 04:23:24 35° SW 04:25:56 10° SSE visible
18 Oct ? 03:05:07 26° ESE 03:05:07 26° ESE 03:06:29 10° ESE visible
18 Oct ? 04:36:01 11° W 04:37:46 17° SW 04:39:40 10° S visible
19 Oct ? 03:19:36 25° SE 03:19:36 25° SE 03:20:57 10° SE visible
20 Oct ? 03:34:13 15° S 03:34:13 15° S 03:35:01 10° SSE visible
